[[{"header":{"parameterUnit":"m.s-1","parameterCategory":1,"la1":30.2991,"la2":30.254,"lo1":-89.0895,"lo2":-89.0444,"dy":0.0017,"dx":0.0017,"nx":28,"ny":28,"refTime":"2024-03-18T09:00:00:Z","depth":0,"parameterNumber":2,"parameterNumberName":"U-component_of_WINDS"},"data":[0,0,0,0,0,0,0,0,0,0,0,0,0,0,0,0,0,0,0,0,0,0,0,0,0,0,0,0,0,0,0,0,0,0,0,0,0,0,0,0,0,0,0,0,0,0,0,0,0,0,0,0,0,0,0,0,0,0,3.2421,3.2421,0,3.2487,3.2488,3.2489,3.2479,3.2478,3.2477,3.2476,3.2544,3.2547,3.255,0,0,0,0,0,0,0,0,0,0,0,0,0,3.2286,3.2288,3.242,3.2421,3.2422,3.2487,3.2488,3.2489,3.2479,3.2478,3.2476,3.2475,3.2543,3.2547,3.255,0,0,0,0,0,0,0,0,0,0,0,0,0,3.2348,3.2289,3.242,3.2425,3.2426,3.2487,3.2488,3.2489,3.2479,3.2478,3.2476,3.2474,3.2542,3.2546,3.2551,3.2611,0,0,3.2564,3.2566,0,0,0,0,0,0,0,0,3.2344,3.2353,3.2424,3.2425,3.2426,3.2473,3.2466,3.253,3.248,3.2459,3.2476,3.2474,3.2522,3.2528,3.2544,3.2615,3.2617,3.2564,3.2567,3.2569,3.257,0,0,0,0,0,0,0,3.234,3.235,3.2447,3.2425,3.2426,3.2424,3.2431,3.2478,3.2499,3.2461,3.246,3.2468,3.2522,3.254,3.2546,3.2618,3.2564,3.2568,3.2571,3.2572,3.2744,3.2746,0,0,0,0,0,0,3.2334,3.2346,3.2445,3.2449,3.238,3.2428,3.2436,3.246,3.2499,3.2503,3.247,3.2468,3.2533,3.2541,3.2548,3.2623,3.2569,3.2573,3.2575,3.2742,3.2745,3.2747,0,0,0,0,0,0,3.2331,3.2343,3.2442,3.2397,3.241,3.2432,3.2459,3.2462,3.2479,3.2505,3.2509,3.2484,3.2532,3.2542,3.2596,3.2625,3.2575,3.2579,3.274,3.2743,3.2746,3.2771,0,0,0,0,0,0,3.2327,3.2342,3.2365,3.2398,3.2412,3.2489,3.2461,3.2464,3.2487,3.2485,3.252,3.2524,3.2532,3.259,3.26,3.263,3.2582,3.2737,3.2741,3.2745,3.2768,3.2775,3.2781,0,0,0,0,0,3.2323,3.2369,3.2366,3.2378,3.2441,3.249,3.2498,3.2507,3.2489,3.2513,3.253,3.2523,3.262,3.2595,3.2607,3.2638,3.2736,3.274,3.2744,3.2765,3.2774,3.2781,0,0,0,0,0,0,3.2338,3.2373,3.237,3.2429,3.2457,3.2488,3.2518,3.2515,3.2548,3.2545,3.2554,3.2562,3.2617,3.2633,3.2605,3.27,3.2676,3.2683,3.2687,3.2695,3.2702,3.2696,3.2586,0,0,0,0,0,3.2348,3.2385,3.2414,3.2463,3.2477,3.2495,3.2517,3.2521,3.255,3.2562,3.2583,3.2612,3.2649,3.2673,3.2709,3.2771,3.2779,3.2799,3.2805,3.281,3.2816,3.2851,3.286,3.2761,3.2761,3.2761,0,0,3.2369,3.2393,3.2416,3.2466,3.2488,3.2527,3.2505,3.2546,3.2575,3.2568,3.2621,3.2637,3.267,3.2729,3.2756,3.2744,3.2845,3.2816,3.2819,3.2822,3.2857,3.2866,3.2874,3.2764,3.2764,3.2763,0,0,3.2428,3.245,3.2493,3.2516,3.255,3.2562,3.2573,3.2606,3.2617,3.267,3.2666,3.2701,3.2765,3.2789,3.2809,3.288,3.2874,3.2891,3.2924,3.2958,3.2966,3.2973,3.2998,3.3007,3.2897,3.2897,3.2897,0,3.245,3.2507,3.2516,3.2558,3.2581,3.2578,3.2622,3.2644,3.2688,3.2704,3.2691,3.2772,3.2794,3.2859,3.2876,3.2893,3.2906,3.2886,3.2964,3.2971,3.2978,3.3002,3.3012,3.2899,3.2898,3.2898,3.2898,0,3.2533,3.2573,3.2604,3.2647,3.2674,3.2717,3.2733,3.2759,3.2762,3.2776,3.2831,3.2857,3.2899,3.2915,3.2918,3.2981,3.2973,3.2962,3.2937,3.2989,3.3012,3.3021,3.2901,3.2901,3.29,3.29,0,0,3.2601,3.265,3.2661,3.2681,3.272,3.2751,3.2795,3.2836,3.2859,3.289,3.2927,3.2983,3.2973,3.2996,3.3002,3.3032,3.3088,3.3018,3.3019,3.303,3.316,3.3168,3.3179,3.3085,3.3087,3.3088,3.3158,0,3.2663,3.274,3.275,3.2819,3.2857,3.2855,3.2894,3.2922,3.2937,3.2971,3.2988,3.3027,3.3011,3.3026,3.3056,3.3074,3.3114,3.307,3.312,3.3122,3.3111,3.3191,3.3199,3.3263,3.3167,3.3168,3.3169,0,3.2745,3.2779,3.2852,3.2887,3.2903,3.2937,3.2976,3.3009,3.3042,3.3051,3.3078,3.3081,3.3127,3.3102,3.3166,3.3136,3.3158,3.3171,3.3173,3.3178,3.3148,3.3197,3.3283,3.3293,3.3184,3.3182,3.3181,0,3.2788,3.2852,3.2904,3.2921,3.2963,3.2988,3.3006,3.3037,3.3062,3.3097,3.3113,3.3153,3.3175,3.3206,3.322,3.3199,3.3284,3.3259,3.3293,3.3293,3.331,3.3308,3.34,3.3325,3.3324,3.3324,3.3324,0,3.2856,3.29,3.2924,3.2956,3.3006,3.3018,3.3068,3.3086,3.3114,3.315,3.3152,3.3185,3.3202,3.3238,3.325,3.3302,3.3312,3.3321,3.3323,3.332,3.3319,3.3334,3.333,3.3327,3.3326,3.3326,3.3325,0,3.2911,3.2929,3.2986,3.3021,3.3031,3.3067,3.3098,3.3129,3.3145,3.319,3.3202,3.3226,3.327,3.3287,3.334,3.3348,3.3408,3.3407,3.3397,3.3398,3.3431,3.3427,3.3535,3.355,3.3465,3.3465,3.3466,0,3.2953,3.2988,3.3027,3.3052,3.3071,3.311,3.3136,3.315,3.3177,3.3218,3.3245,3.3288,3.3324,3.3394,3.3416,3.3458,3.3457,3.3492,3.3464,3.346,3.3458,3.3456,3.346,3.3497,3.3498,3.3499,3.3499,0,3.3026,3.3034,3.307,3.3111,3.3141,3.3173,3.3205,3.3225,3.3244,3.3274,3.3319,3.3347,3.3402,3.3445,3.3488,3.3508,3.3508,3.3509,3.3519,3.3516,3.3509,3.3513,3.3411,3.3506,3.3505,3.3505,3.3504,3.3504,3.3076,3.3107,3.314,3.3181,3.3207,3.3237,3.3269,3.3289,3.3326,3.3372,3.3379,3.3427,3.3461,3.3518,3.354,3.3579,3.357,3.3584,3.3588,3.3591,3.3593,3.3503,3.3587,3.3586,3.3586,3.3586,3.3586,0,3.3149,3.3171,3.3209,3.3253,3.3286,3.3283,3.3319,3.3346,3.3389,3.342,3.3456,3.3508,3.3551,3.3578,3.3621,3.3647,3.3648,3.3658,3.3656,3.3661,3.3599,3.3586,3.3657,3.3657,3.3657,3.3657,3.3657,3.3657,3.3191,3.3243,3.3255,3.3321,3.3342,3.3389,3.341,3.3438,3.3464,3.3522,3.3558,3.3575,3.3606,3.3652,3.3691,3.3698,3.3714,3.3725,3.3731,3.3672,3.3665,3.3658,3.3646,3.3728,3.3728,3.379,3.3791,3.3791]},{"header":{"parameterUnit":"m.s-1","parameterCategory":1,"la1":30.2991,"la2":30.254,"lo1":-89.0895,"lo2":-89.0444,"dy":0.0017,"dx":0.0017,"nx":28,"ny":28,"refTime":"2024-03-18T09:00:00:Z","depth":0,"parameterNumber":3,"parameterNumberName":"V-component_of_WINDS"},"data":[0,0,0,0,0,0,0,0,0,0,0,0,0,0,0,0,0,0,0,0,0,0,0,0,0,0,0,0,0,0,0,0,0,0,0,0,0,0,0,0,0,0,0,0,0,0,0,0,0,0,0,0,0,0,0,0,0,0,-7.1407,-7.1409,0,-7.1511,-7.1512,-7.1513,-7.1457,-7.1455,-7.1452,-7.1449,-7.1552,-7.1557,-7.1562,0,0,0,0,0,0,0,0,0,0,0,0,0,-7.1158,-7.1163,-7.1407,-7.1409,-7.141,-7.1511,-7.1512,-7.1514,-7.1458,-7.1454,-7.1451,-7.1448,-7.155,-7.1556,-7.1563,0,0,0,0,0,0,0,0,0,0,0,0,0,-7.1265,-7.1165,-7.1407,-7.1394,-7.1394,-7.1511,-7.1512,-7.1514,-7.1459,-7.1454,-7.145,-7.1446,-7.1548,-7.1556,-7.1564,-7.1697,0,0,-7.1588,-7.1592,0,0,0,0,0,0,0,0,-7.1259,-7.1274,-7.1395,-7.1395,-7.1395,-7.1467,-7.1462,-7.1575,-7.146,-7.1434,-7.1449,-7.1444,-7.1527,-7.1536,-7.1565,-7.1702,-7.1707,-7.1589,-7.1594,-7.1597,-7.1599,0,0,0,0,0,0,0,-7.1251,-7.1269,-7.1448,-7.1397,-7.1397,-7.1383,-7.1393,-7.1483,-7.1503,-7.1436,-7.1432,-7.1445,-7.1526,-7.1557,-7.1567,-7.1708,-7.1589,-7.1596,-7.1601,-7.1604,-7.1962,-7.1966,0,0,0,0,0,0,-7.1245,-7.1263,-7.1445,-7.1451,-7.1315,-7.1391,-7.1402,-7.1448,-7.1502,-7.1506,-7.1449,-7.1442,-7.1546,-7.1557,-7.157,-7.1731,-7.1597,-7.1605,-7.1609,-7.1957,-7.1963,-7.1968,0,0,0,0,0,0,-7.124,-7.1262,-7.1441,-7.1356,-7.1378,-7.1399,-7.1451,-7.1453,-7.1484,-7.1511,-7.1514,-7.1477,-7.1543,-7.1559,-7.1667,-7.1734,-7.1608,-7.1615,-7.1952,-7.1959,-7.1966,-7.2055,0,0,0,0,0,0,-7.1233,-7.126,-7.1312,-7.1358,-7.1383,-7.1537,-7.1456,-7.1458,-7.1498,-7.1491,-7.1539,-7.1543,-7.1541,-7.1655,-7.1675,-7.1743,-7.1622,-7.1946,-7.1955,-7.1963,-7.2046,-7.2064,-7.2079,0,0,0,0,0,-7.1225,-7.1332,-7.1315,-7.1337,-7.1448,-7.1541,-7.1555,-7.1551,-7.1504,-7.1556,-7.1574,-7.1541,-7.1724,-7.1667,-7.1688,-7.176,-7.1942,-7.1952,-7.1963,-7.2038,-7.206,-7.2079,0,0,0,0,0,0,-7.1291,-7.1338,-7.1319,-7.1445,-7.149,-7.1531,-7.1596,-7.1574,-7.1632,-7.1623,-7.1615,-7.1626,-7.1739,-7.176,-7.1696,-7.1893,-7.1825,-7.1841,-7.1875,-7.1896,-7.1913,-7.1905,-7.1628,0,0,0,0,0,-7.1321,-7.1394,-7.1429,-7.1537,-7.156,-7.1575,-7.1615,-7.1609,-7.1654,-7.1672,-7.1698,-7.1742,-7.181,-7.1854,-7.1917,-7.2049,-7.2058,-7.2108,-7.2125,-7.2139,-7.2152,-7.2224,-7.2247,-7.2003,-7.2003,-7.2003,0,0,-7.1382,-7.1417,-7.1462,-7.1551,-7.1585,-7.166,-7.1591,-7.1672,-7.1727,-7.1684,-7.1788,-7.1809,-7.1858,-7.1978,-7.2033,-7.1999,-7.2222,-7.2152,-7.2163,-7.2169,-7.2237,-7.226,-7.2281,-7.201,-7.2009,-7.2008,0,0,-7.1533,-7.1566,-7.166,-7.1696,-7.1748,-7.1757,-7.178,-7.1826,-7.1838,-7.1943,-7.1912,-7.1977,-7.2093,-7.213,-7.2164,-7.233,-7.2303,-7.2351,-7.2438,-7.2509,-7.2528,-7.2545,-7.2605,-7.2627,-7.2364,-7.2364,-7.2365,0,-7.1602,-7.1714,-7.171,-7.1795,-7.1835,-7.1801,-7.1896,-7.193,-7.2001,-7.2029,-7.1991,-7.2137,-7.2167,-7.2297,-7.2338,-7.2366,-7.2391,-7.2345,-7.2526,-7.2543,-7.2559,-7.2616,-7.2638,-7.237,-7.2369,-7.2369,-7.2368,0,-7.1797,-7.1876,-7.1945,-7.2016,-7.2064,-7.2153,-7.2162,-7.2211,-7.2201,-7.2214,-7.2321,-7.2357,-7.2428,-7.2458,-7.2448,-7.2586,-7.2564,-7.2527,-7.2458,-7.2588,-7.2641,-7.2663,-7.2378,-7.2376,-7.2374,-7.2373,0,0,-7.1992,-7.2061,-7.2086,-7.2119,-7.2175,-7.2235,-7.2323,-7.2394,-7.2436,-7.2486,-7.256,-7.266,-7.2626,-7.2664,-7.2658,-7.272,-7.2851,-7.2675,-7.2676,-7.2707,-7.3006,-7.3034,-7.306,-7.2833,-7.2837,-7.284,-7.3002,0,-7.2146,-7.2301,-7.2301,-7.2444,-7.2517,-7.2486,-7.2563,-7.2606,-7.2621,-7.2684,-7.2699,-7.2771,-7.272,-7.2744,-7.2803,-7.2822,-7.2911,-7.281,-7.2901,-7.2904,-7.289,-7.3088,-7.3118,-7.3269,-7.3023,-7.3026,-7.3029,0,-7.2347,-7.2406,-7.2557,-7.2604,-7.2635,-7.2704,-7.2769,-7.283,-7.2878,-7.2885,-7.2929,-7.2914,-7.3003,-7.2933,-7.3056,-7.2988,-7.3025,-7.304,-7.3045,-7.3054,-7.2975,-7.3102,-7.3316,-7.3339,-7.3062,-7.3059,-7.3057,0,-7.2475,-7.2591,-7.2697,-7.2725,-7.2783,-7.2833,-7.2859,-7.2903,-7.2946,-7.3003,-7.3031,-7.3097,-7.3133,-7.3185,-7.3188,-7.3136,-7.3312,-7.3241,-7.332,-7.332,-7.3358,-7.3355,-7.3582,-7.3381,-7.3381,-7.3381,-7.338,0,-7.2647,-7.2741,-7.2755,-7.282,-7.2925,-7.2923,-7.3026,-7.3047,-7.3087,-7.3156,-7.3133,-7.3197,-7.3197,-7.3263,-7.3266,-7.3368,-7.3384,-7.3391,-7.3391,-7.3394,-7.3393,-7.3418,-7.3408,-7.3387,-7.3385,-7.3384,-7.3383,0,-7.2807,-7.282,-7.2934,-7.298,-7.2994,-7.3069,-7.3108,-7.317,-7.3183,-7.327,-7.329,-7.3311,-7.3388,-7.3396,-7.3484,-7.3486,-7.3609,-7.3597,-7.3594,-7.3592,-7.367,-7.3663,-7.3921,-7.3955,-7.3732,-7.3734,-7.3736,0,-7.2917,-7.2988,-7.3043,-7.3088,-7.3118,-7.319,-7.3234,-7.3236,-7.3283,-7.3344,-7.3399,-7.3473,-7.3533,-7.3656,-7.3679,-7.3746,-7.3736,-7.3822,-7.3746,-7.3747,-7.3738,-7.3734,-7.3741,-7.3836,-7.3839,-7.3841,-7.3843,0,-7.311,-7.3113,-7.3179,-7.3248,-7.3302,-7.3356,-7.3406,-7.3444,-7.3452,-7.3506,-7.3585,-7.3632,-7.3723,-7.3797,-7.3864,-7.389,-7.3868,-7.3867,-7.3888,-7.3892,-7.3887,-7.3891,-7.3634,-7.386,-7.3859,-7.3857,-7.3856,-7.3856,-7.3248,-7.3311,-7.336,-7.3434,-7.3473,-7.3521,-7.3582,-7.3604,-7.367,-7.3746,-7.3742,-7.3829,-7.3876,-7.3965,-7.3996,-7.4063,-7.4035,-7.4066,-7.4074,-7.4082,-7.409,-7.3876,-7.4075,-7.4075,-7.4074,-7.4074,-7.4073,0,-7.3441,-7.3471,-7.354,-7.3612,-7.3671,-7.3647,-7.3702,-7.3752,-7.3829,-7.3876,-7.3936,-7.4027,-7.4099,-7.4128,-7.4199,-7.4247,-7.4239,-7.4266,-7.4262,-7.4269,-7.4111,-7.4086,-7.4272,-7.4272,-7.4272,-7.4272,-7.4271,-7.4271,-7.3548,-7.3653,-7.3663,-7.3788,-7.3817,-7.3903,-7.3937,-7.3981,-7.4019,-7.4122,-7.4183,-7.4202,-7.4241,-7.4315,-7.438,-7.4387,-7.4414,-7.4446,-7.4448,-7.43,-7.428,-7.4261,-7.4237,-7.4451,-7.4452,-7.46,-7.4601,-7.4602]}]]